Weather History for KBLM - July, 2014

Change the Weather History Date:

Tuesday, July 8, 2014

  Actual Average Record
Temperature  
Mean Temperature 82 °F -  
Max Temperature 95 °F 80 °F 95 °F (2014)
Min Temperature 69 °F 63 °F 53 °F (2000)
Cooling Degree Days 17    
Growing Degree Days 32 (Base 50)    
Moisture  
Dew Point 66 °F    
Average Humidity 60    
Maximum Humidity 78    
Minimum Humidity 36    
Precipitation  
Precipitation 0.05 in - - ()
Sea Level Pressure  
Sea Level Pressure 29.80 in    
Wind  
Wind Speed 9 mph (SW)    
Max Wind Speed 17 mph    
Max Gust Speed 45 mph    
Visibility 10 miles    
Events      
Averages and records for this station are not official NWS values.
T = Trace of Precipitation, MM = Missing Value Source: NWS Daily Summary

Daily Weather History Graph

Daily Weather History Graph

Search for Another Location

Airport or City:

Trip Planner

Search our weather history database for the weather conditions in past years. The results will help you decide how hot, cold, wet, or windy it might be!

Date:

Astronomy

Jul. 08, 2014 Rise Set
Actual Time 5:34 AM EDT 8:28 PM EDT
Civil Twilight 5:02 AM EDT 9:00 PM EDT
Nautical Twilight 4:21 AM EDT 9:41 PM EDT
Astronomical Twilight 3:33 AM EDT 10:28 PM EDT
Moon 4:32 PM EDT (7/8) 2:05 AM EDT (7/8)
Length of Visible Light 15h 58m
Length of Day
14h 53m
Waxing Gibbous, 81% of the Moon is Illuminated
Jul 8
Waxing Gibbous
Jul 12
Full
Jul 18
Last Quarter
Jul 26
New
Aug 3
First Quarter

Hourly Weather History & Observations

Time (EDT) Temp. Heat Index Dew Point Humidity Pressure Visibility Wind Dir Wind Speed Gust Speed Precip Events Conditions
12:15 AM 80.6 °F 82.3 °F 64.4 °F 58% 29.83 in 10.0 mi SW 10.4 mph - N/A   Clear
12:35 AM 80.6 °F 82.3 °F 64.4 °F 58% 29.83 in 10.0 mi SW 8.1 mph - N/A   Clear
12:55 AM 80.6 °F 82.3 °F 64.4 °F 58% 29.83 in 10.0 mi SW 8.1 mph - N/A   Clear
1:15 AM 80.6 °F 82.7 °F 66.2 °F 61% 29.84 in 10.0 mi WSW 8.1 mph - N/A   Clear
1:35 AM 78.8 °F - 64.4 °F 61% 29.85 in 10.0 mi NW 16.1 mph - N/A   Clear
1:55 AM 78.8 °F - 66.2 °F 65% 29.85 in 10.0 mi West 4.6 mph - N/A   Partly Cloudy
2:15 AM 78.8 °F - 66.2 °F 65% 29.84 in 10.0 mi SW 4.6 mph - N/A   Clear
2:35 AM 77.0 °F - 66.2 °F 69% 29.83 in 10.0 mi SSW 4.6 mph - N/A   Clear
2:55 AM 75.2 °F - 66.2 °F 73% 29.83 in 10.0 mi South 5.8 mph - N/A   Clear
3:15 AM 75.2 °F - 66.2 °F 73% 29.83 in 10.0 mi South 4.6 mph - N/A   Clear
3:35 AM 75.2 °F - 66.2 °F 73% 29.82 in 10.0 mi South 4.6 mph - N/A   Clear
3:55 AM 75.2 °F - 64.4 °F 69% 29.82 in 10.0 mi Calm Calm - N/A   Clear
4:15 AM 73.4 °F - 66.2 °F 78% 29.82 in 10.0 mi SSW 6.9 mph - N/A   Clear
4:35 AM 75.2 °F - 66.2 °F 73% 29.81 in 10.0 mi South 4.6 mph - N/A   Clear
4:55 AM 73.4 °F - 66.2 °F 78% 29.81 in 10.0 mi SSW 5.8 mph - N/A   Clear
5:15 AM 73.4 °F - 66.2 °F 78% 29.81 in 10.0 mi SSW 5.8 mph - N/A   Clear
5:35 AM 73.4 °F - 66.2 °F 78% 29.81 in 10.0 mi SSW 4.6 mph - N/A   Clear
5:55 AM 73.4 °F - 66.2 °F 78% 29.79 in 10.0 mi SSW 4.6 mph - N/A   Clear
6:15 AM 73.4 °F - 66.2 °F 78% 29.80 in 10.0 mi SW 6.9 mph - N/A   Clear
6:35 AM 73.4 °F - 66.2 °F 78% 29.81 in 10.0 mi SW 6.9 mph - N/A   Clear
6:55 AM 75.2 °F - 66.2 °F 73% 29.82 in 10.0 mi SW 8.1 mph - N/A   Clear
7:15 AM 75.2 °F - 66.2 °F 73% 29.84 in 10.0 mi WSW 9.2 mph - N/A   Clear
7:35 AM 77.0 °F - 66.2 °F 69% 29.85 in 10.0 mi SW 11.5 mph - N/A   Clear
7:55 AM 78.8 °F - 68.0 °F 69% 29.85 in 10.0 mi SW 10.4 mph 17.3 mph N/A   Clear
8:15 AM 78.8 °F - 68.0 °F 69% 29.86 in 10.0 mi SW 8.1 mph - N/A   Clear
8:35 AM 80.6 °F 83.2 °F 68.0 °F 65% 29.85 in 10.0 mi SW 9.2 mph - N/A   Clear
8:55 AM 82.4 °F 85.4 °F 68.0 °F 62% 29.86 in 10.0 mi WSW 9.2 mph - N/A   Clear
9:15 AM 82.4 °F 85.4 °F 68.0 °F 62% 29.85 in 10.0 mi WSW 8.1 mph - N/A   Clear
9:35 AM 82.4 °F 86.3 °F 69.8 °F 66% 29.85 in 10.0 mi SW 6.9 mph - N/A   Clear
9:55 AM 84.2 °F 87.3 °F 68.0 °F 58% 29.85 in 10.0 mi WSW 9.2 mph - N/A   Clear
10:15 AM 84.2 °F 88.4 °F 69.8 °F 62% 29.85 in 10.0 mi WSW 9.2 mph - N/A   Clear
10:35 AM 86.0 °F 90.4 °F 69.8 °F 58% 29.84 in 10.0 mi WSW 6.9 mph - N/A   Clear
10:55 AM 87.8 °F 91.4 °F 68.0 °F 52% 29.84 in 10.0 mi WSW 9.2 mph - N/A   Clear
11:15 AM 89.6 °F 93.4 °F 68.0 °F 49% 29.84 in 5.0 mi WSW 10.4 mph - N/A   Clear
11:35 AM 89.6 °F 92.2 °F 66.2 °F 46% 29.83 in 10.0 mi WSW 11.5 mph - N/A   Clear
11:55 AM 91.4 °F 94.0 °F 66.2 °F 43% 29.83 in 10.0 mi WSW 11.5 mph 16.1 mph N/A   Clear
12:15 PM 91.4 °F 94.0 °F 66.2 °F 43% 29.82 in 10.0 mi WSW 12.7 mph - N/A   Clear
12:35 PM 91.4 °F 93.2 °F 64.4 °F 41% 29.81 in 10.0 mi SW 11.5 mph - N/A   Clear
12:55 PM 93.2 °F 94.9 °F 64.4 °F 38% 29.81 in 10.0 mi SW 12.7 mph 21.9 mph N/A   Partly Cloudy
1:15 PM 93.2 °F 94.9 °F 64.4 °F 38% 29.80 in 10.0 mi WSW 16.1 mph 23.0 mph N/A   Scattered Clouds
1:35 PM 93.2 °F 94.9 °F 64.4 °F 38% 29.79 in 10.0 mi SW 16.1 mph 21.9 mph N/A   Partly Cloudy
1:55 PM 93.2 °F 94.9 °F 64.4 °F 38% 29.79 in 10.0 mi WSW 15.0 mph 23.0 mph N/A   Partly Cloudy
2:15 PM 95.0 °F 97.0 °F 64.4 °F 36% 29.78 in 10.0 mi WSW 15.0 mph 19.6 mph N/A   Clear
2:35 PM 93.2 °F 94.9 °F 64.4 °F 38% 29.78 in 10.0 mi SW 11.5 mph 20.7 mph N/A   Clear
2:55 PM 95.0 °F 97.0 °F 64.4 °F 36% 29.77 in 10.0 mi WSW 12.7 mph 18.4 mph N/A   Clear
3:15 PM 93.2 °F 96.2 °F 66.2 °F 41% 29.76 in 10.0 mi SSW 15.0 mph - N/A   Clear
3:35 PM 93.2 °F 94.9 °F 64.4 °F 38% 29.76 in 10.0 mi SSW 12.7 mph 20.7 mph N/A   Scattered Clouds
3:55 PM 91.4 °F 96.8 °F 69.8 °F 49% 29.75 in 10.0 mi South 11.5 mph - N/A   Partly Cloudy
4:15 PM 93.2 °F 94.9 °F 64.4 °F 38% 29.74 in 10.0 mi SSW 12.7 mph 20.7 mph N/A   Clear
4:35 PM 93.2 °F 94.9 °F 64.4 °F 38% 29.74 in 10.0 mi SW 9.2 mph 19.6 mph N/A   Scattered Clouds
5:15 PM 87.8 °F 92.6 °F 69.8 °F 55% 29.73 in 10.0 mi South 11.5 mph 17.3 mph N/A   Clear
5:35 PM 87.8 °F 93.8 °F 71.6 °F 58% 29.73 in 10.0 mi SSE 9.2 mph 17.3 mph N/A   Partly Cloudy
5:55 PM 87.8 °F 92.6 °F 69.8 °F 55% 29.73 in 10.0 mi South 8.1 mph - N/A   Clear
6:15 PM 87.8 °F 92.6 °F 69.8 °F 55% 29.73 in 10.0 mi SSE 10.4 mph 17.3 mph N/A   Clear
6:35 PM 87.8 °F 92.6 °F 69.8 °F 55% 29.72 in 10.0 mi South 6.9 mph 16.1 mph N/A   Clear
6:55 PM 87.8 °F 92.6 °F 69.8 °F 55% 29.72 in 10.0 mi South 11.5 mph 18.4 mph N/A   Clear
7:15 PM 86.0 °F 90.4 °F 69.8 °F 58% 29.72 in 10.0 mi South 10.4 mph 16.1 mph N/A   Clear
7:35 PM 86.0 °F 90.4 °F 69.8 °F 58% 29.71 in 10.0 mi South 10.4 mph 20.7 mph N/A   Clear
7:55 PM 84.2 °F 87.3 °F 68.0 °F 58% 29.72 in 10.0 mi SSW 15.0 mph 20.7 mph N/A   Clear
8:15 PM 84.2 °F 87.3 °F 68.0 °F 58% 29.71 in 10.0 mi SSW 10.4 mph 19.6 mph N/A   Clear
8:35 PM 84.2 °F 87.3 °F 68.0 °F 58% 29.72 in 10.0 mi SSW 10.4 mph 19.6 mph N/A   Clear
8:55 PM 82.4 °F 85.4 °F 68.0 °F 62% 29.73 in 10.0 mi SSW 15.0 mph 20.7 mph N/A   Clear
9:15 PM 82.4 °F 85.4 °F 68.0 °F 62% 29.74 in 10.0 mi SSW 10.4 mph 18.4 mph N/A   Clear
9:35 PM 82.4 °F 85.4 °F 68.0 °F 62% 29.75 in 10.0 mi SSW 12.7 mph 18.4 mph N/A   Clear
9:55 PM 73.4 °F - 60.8 °F 65% 29.80 in 8.0 mi WSW 15.0 mph 44.9 mph 0.01 in   Mostly Cloudy
10:15 PM 71.6 °F - 62.6 °F 73% 29.82 in 10.0 mi SW 17.3 mph 26.5 mph 0.01 in   Mostly Cloudy
10:35 PM 69.8 °F - 62.6 °F 78% 29.83 in 10.0 mi WSW 11.5 mph - 0.02 in   Mostly Cloudy
10:55 PM 69.8 °F - 62.6 °F 78% 29.82 in 10.0 mi SW 10.4 mph - 0.03 in   Overcast
11:15 PM 69.8 °F - 62.6 °F 78% 29.82 in 10.0 mi SW 8.1 mph - 0.01 in   Mostly Cloudy
11:35 PM 69.8 °F - 62.6 °F 78% 29.83 in 10.0 mi WSW 9.2 mph - 0.01 in   Scattered Clouds
11:55 PM 69.8 °F - 62.6 °F 78% 29.82 in 10.0 mi SW 9.2 mph - 0.01 in   Partly Cloudy